RH
46 45 47 46 46 51 53 53 56 65 70 73 78 76 76 81 83 78 64 60 75 82 78 75 77 82 86 80 67 60 62 69 67 58 55 53 63 72 63 58 60 71 86 87 93 103 101 97 97 101 100 88 75 75 82 79 79 82 65 46 40 37 35 34 33 34 34 33 33 31 31 31 32 32 30 31 32 31 33 33 34 35 36 37 37 38
51 52 50 45 50 61 60 56 62 70 75 80 86 83 79 81 85 81 65 60 73 76 70 72 77 83 91 88 75 66 66 75 73 66 69 61 56 69 70 62 57 58 70 80 87 96 99 102 101 99 99 94 85 90 99 98 93 84 63 47 43 40 37 37 36 36 37 36 35 34 33 33 33 34 34 34 35 35 36 38 39 41 42 43 44 45
57 57 49 49 63 70 65 64 71 77 79 81 84 85 84 82 84 83 68 58 63 66 64 70 78 84 94 96 85 80 81 78 77 80 81 72 61 62 66 68 69 64 60 61 65 78 95 99 86 81 96 103 98 100 103 102 93 73 59 53 48 45 40 39 39 38 39 39 39 38 35 35 35 36 38 39 40 41 40 42 44 47 49 50 52 53
63 59 52 61 75 71 69 74 76 76 77 78 80 83 84 82 83 81 68 57 58 65 66 65 74 86 98 105 95 89 92 83 79 86 82 74 71 65 58 59 71 80 72 57 59 76 86 80 67 70 94 101 97 101 101 101 94 68 60 66 59 53 47 43 43 43 44 43 43 43 40 40 40 40 43 45 47 48 48 50 51 54 57 58 60 62
65 58 61 73 78 71 72 77 74 72 73 72 74 78 80 78 78 75 66 62 61 61 62 64 73 83 90 97 92 83 91 89 79 81 84 83 81 76 68 60 66 82 83 69 62 66 66 68 74 75 85 90 86 91 93 97 99 75 67 78 73 64 57 51 50 48 49 49 47 47 46 46 48 48 50 52 56 58 60 63 64 67 69 70 72 73
63 59 75 77 72 72 71 71 70 68 68 68 69 72 72 71 71 71 66 63 63 60 61 64 67 74 79 84 84 78 84 89 82 80 90 98 98 94 84 70 69 76 82 82 69 60 61 71 79 68 67 80 84 90 95 97 101 84 72 81 82 76 67 60 58 56 54 53 50 49 49 52 55 57 59 61 64 68 71 75 79 82 85 87 89 90
67 64 79 75 68 69 67 67 68 65 66 66 67 67 66 67 69 69 68 64 65 65 61 59 60 67 72 76 81 76 71 81 88 84 85 96 101 101 91 76 76 78 82 93 81 66 69 73 74 65 63 80 93 99 100 102 100 83 75 83 88 88 81 68 66 66 62 58 54 51 49 52 58 62 66 68 72 76 79 82 85 89 94 99 102 102
65 61 66 62 59 59 56 59 60 61 65 64 63 66 66 67 69 70 73 70 69 70 63 61 65 64 66 77 82 74 67 73 82 83 78 78 79 87 90 82 82 79 81 97 92 75 76 78 78 78 74 82 96 102 100 101 96 78 76 88 92 98 97 81 74 76 74 67 62 56 53 52 56 63 68 72 76 80 83 87 90 92 96 100 104 107
59 58 58 57 54 53 52 53 51 53 58 54 53 62 66 66 67 70 77 77 79 78 67 67 69 62 67 84 86 80 78 74 73 77 74 66 63 72 83 84 85 82 78 87 90 86 90 90 88 90 88 86 91 98 102 101 92 82 85 93 95 103 107 93 84 87 84 77 71 64 59 56 56 61 66 71 75 79 84 90 96 100 102 105 109 112
62 62 62 63 59 57 56 55 54 53 51 48 48 53 57 58 62 69 75 80 82 75 71 77 74 65 73 90 96 89 80 77 80 77 72 78 77 69 73 83 87 81 73 74 80 87 93 94 91 91 91 89 90 101 107 96 85 86 90 89 91 102 111 101 92 96 94 86 80 73 67 64 61 61 62 65 69 75 81 88 96 103 107 112 114 110
69 71 70 69 67 65 64 62 61 59 54 53 52 50 50 53 59 63 66 72 75 72 79 88 80 70 77 92 105 94 71 75 90 80 75 90 89 75 80 85 76 71 75 77 74 78 89 96 99 97 90 88 96 108 104 83 80 95 96 83 80 93 108 106 95 97 99 93 87 83 78 73 68 66 65 62 64 67 72 80 87 95 102 110 111 106
72 76 75 73 73 73 73 72 70 67 63 59 58 54 52 55 57 56 56 57 60 69 84 94 86 75 77 94 106 92 68 70 85 87 86 87 81 81 90 81 65 68 79 76 71 83 101 106 105 102 90 82 90 96 84 67 75 96 93 77 74 82 96 104 97 96 100 97 94 93 89 84 77 74 71 67 65 66 68 72 77 82 89 96 100 102
73 75 76 76 76 75 76 77 75 73 71 67 63 61 59 59 57 54 52 50 54 69 80 82 81 73 76 98 101 80 67 72 85 97 99 91 85 86 81 69 65 73 73 67 77 101 110 102 100 102 92 81 81 82 72 62 67 78 78 75 76 76 86 98 97 94 97 97 97 99 97 93 87 81 78 76 73 72 72 72 72 74 77 82 87 92
78 76 76 78 77 76 76 76 74 75 76 75 71 70 68 66 64 58 56 55 58 67 65 60 73 80 83 99 94 75 80 94 97 98 99 100 99 92 82 73 70 73 75 73 85 104 105 92 91 97 94 86 79 77 77 72 67 69 73 77 75 73 83 95 96 93 94 92 94 98 100 98 95 90 86 83 81 78 76 75 76 76 75 75 78 83
83 76 74 75 73 74 75 72 70 71 76 79 76 74 74 72 70 66 63 61 57 58 54 56 76 88 91 100 95 88 99 106 100 95 97 100 97 93 89 79 69 73 86 87 82 89 92 83 79 81 84 81 73 72 77 75 69 66 65 67 66 66 76 87 89 87 87 87 88 91 96 98 98 97 94 89 86 83 78 76 79 83 82 80 78 79
82 78 74 72 68 68 70 68 64 66 72 76 74 73 74 73 72 69 65 62 57 56 53 55 66 71 82 102 105 104 105 100 96 96 94 93 89 86 83 73 70 80 92 90 78 75 76 75 74 73 75 76 69 67 71 69 66 61 55 54 53 54 65 78 83 82 79 82 85 83 86 92 93 94 95 93 91 89 85 79 79 83 85 85 84 82
76 78 74 72 71 66 65 68 67 67 69 72 72 71 69 67 69 70 68 63 59 60 57 56 59 61 75 92 100 104 103 97 98 94 90 93 89 83 80 74 75 87 94 88 80 78 76 75 77 75 73 75 70 68 69 66 63 59 54 51 46 53 78 92 94 91 84 82 87 86 82 84 87 89 90 93 93 92 92 88 84 84 84 84 83 83
72 74 71 72 77 71 65 69 71 68 66 67 69 68 65 64 67 69 69 65 63 64 64 61 59 65 76 80 83 93 95 94 99 97 95 99 94 88 90 88 86 93 98 91 86 89 88 85 85 82 78 77 75 72 71 69 65 59 54 50 45 58 91 105 101 100 94 83 81 86 89 87 87 90 91 93 93 91 94 97 95 93 91 89 89 86
72 76 76 74 76 71 65 66 65 61 61 61 62 65 69 74 77 77 76 74 72 70 70 72 72 79 89 84 77 82 87 93 100 99 94 92 91 90 91 92 92 93 93 88 85 87 86 86 85 82 80 78 76 75 72 70 68 62 55 49 46 55 83 101 98 98 103 96 79 73 81 87 87 91 93 95 97 94 93 97 101 101 98 96 97 94
69 72 72 70 68 62 59 59 58 57 57 57 58 61 71 85 92 90 87 82 80 81 84 90 92 91 95 93 83 78 87 97 101 97 88 80 80 79 76 78 81 81 81 80 79 80 80 80 79 78 79 76 74 73 72 71 68 65 58 51 48 51 68 91 98 99 103 101 92 77 71 76 79 82 88 93 99 99 95 95 99 100 99 98 98 96
58 58 61 66 67 60 56 57 57 56 54 55 56 54 64 88 99 97 97 91 86 93 98 100 102 100 100 102 96 90 97 104 104 100 91 80 79 76 68 67 68 70 73 72 71 73 73 73 72 72 72 70 70 69 69 69 67 65 61 55 52 51 60 77 90 102 103 95 96 89 73 71 73 71 76 82 88 94 96 96 94 92 96 99 98 97
50 54 57 66 71 68 67 68 63 56 56 60 62 59 63 79 89 93 100 100 95 100 101 100 104 105 104 107 106 101 104 107 108 105 97 90 90 85 74 67 65 65 67 66 67 68 67 67 66 66 66 65 65 64 64 65 63 62 60 57 56 52 55 62 70 90 100 89 86 83 69 67 69 65 68 70 72 77 82 85 84 81 85 91 93 94
40 48 55 68 77 76 78 81 72 64 70 75 75 73 71 72 80 92 103 105 102 101 100 100 100 97 99 110 110 102 102 106 106 104 100 99 98 90 80 74 69 65 63 62 64 63 62 61 60 60 61 60 59 58 57 58 57 57 55 54 55 52 52 56 57 66 74 71 71 70 63 62 63 63 67 64 62 66 69 71 74 73 75 77 77 80
44 50 50 60 71 76 83 88 83 79 84 90 89 87 83 80 84 94 101 103 103 105 107 107 104 98 100 109 107 99 98 102 103 101 98 98 93 84 79 77 72 70 68 65 62 58 57 58 58 58 58 57 57 56 54 54 53 53 51 50 51 49 48 51 53 54 55 57 64 65 59 55 56 59 62 60 58 61 63 65 66 64 67 67 61 60
62 63 53 50 55 64 79 93 99 96 91 90 87 79 81 90 91 87 88 89 93 103 107 104 104 106 106 106 101 95 94 96 97 94 88 86 84 80 79 77 75 75 74 69 64 61 59 58 57 57 56 55 54 53 52 52 51 50 49 49 48 48 47 46 48 49 49 51 56 59 56 53 53 55 57 60 60 59 63 64 60 58 60 60 56 56
69 67 64 61 58 58 69 86 101 98 86 85 85 76 76 87 85 77 78 81 83 94 99 97 102 108 107 105 102 98 96 93 90 85 79 77 79 81 80 78 76 75 72 70 68 67 63 59 56 54 53 51 50 49 47 46 46 45 44 44 43 43 44 43 44 45 45 47 48 52 54 53 54 54 54 58 60 61 65 62 60 69 71 64 60 63
70 68 71 73 69 65 69 82 94 91 80 80 88 88 83 80 75 74 84 92 89 89 95 99 105 109 109 105 99 99 100 94 86 81 76 72 72 76 79 80 80 77 72 71 69 66 61 56 52 49 47 45 44 43 41 39 39 39 38 37 37 37 37 38 39 39 40 42 42 45 47 48 50 51 51 54 55 59 62 58 63 80 83 78 79 80
70 68 71 76 78 77 78 82 87 87 81 76 79 85 86 84 79 75 84 98 98 93 98 106 109 110 109 101 93 96 97 90 85 83 79 76 72 72 77 80 80 76 71 67 63 58 54 49 46 44 42 41 39 37 36 35 34 33 33 34 33 34 34 34 35 35 35 36 37 38 40 41 44 44 45 48 48 51 54 54 59 65 70 86 96 94
81 77 79 80 77 75 76 77 84 90 88 82 79 78 82 90 91 80 77 91 98 93 93 103 110 111 108 102 95 89 79 74 80 83 78 76 74 70 72 73 71 68 64 59 54 50 47 44 42 40 37 36 35 34 32 31 31 30 30 31 31 32 33 34 34 35 35 35 35 36 36 36 38 39 40 41 42 43 43 46 51 49 59 92 103 91
76 85 92 91 84 80 77 73 78 87 92 93 89 80 77 83 88 85 84 91 95 92 93 103 110 108 106 102 96 89 77 67 70 75 74 72 70 68 68 65 62 60 56 51 48 46 44 42 41 39 38 36 35 34 33 32 31 31 30 30 30 30 31 32 34 34 35 36 36 37 37 37 37 37 37 37 38 39 38 39 44 41 47 78 98 93
46 58 70 77 80 85 92 92 88 88 88 86 82 81 82 83 86 91 98 101 99 92 93 99 99 96 100 103 103 103 95 72 59 63 71 74 74 69 63 59 57 53 48 46 44 42 41 40 40 38 39 40 39 37 37 36 35 36 36 34 33 33 34 34 35 35 35 36 36 36 37 37 38 38 38 38 37 38 39 37 39 40 40 54 70 74
46 44 46 48 48 55 72 87 95 96 89 82 82 88 93 93 92 94 98 101 99 90 84 85 87 96 106 109 107 105 97 82 75 78 78 76 73 66 58 53 50 46 44 43 41 39 38 38 38 37 39 43 45 46 48 47 46 46 47 45 42 42 42 42 42 42 41 42 42 42 40 39 38 38 38 39 38 38 39 38 37 38 39 41 44 45
57 55 53 48 42 41 46 51 60 66 66 72 88 101 107 107 105 102 98 96 97 95 92 87 89 101 109 107 104 103 96 93 95 92 81 71 65 59 53 49 45 42 41 40 37 36 34 33 34 37 43 47 51 57 63 63 62 60 58 55 51 48 46 45 45 45 44 45 45 46 47 46 45 44 42 41 41 39 39 39 38 37 37 37 37 36
53 53 54 51 48 49 52 50 47 44 42 49 62 72 80 86 91 96 101 102 104 107 107 99 93 97 104 107 108 105 98 93 90 84 75 67 60 54 48 45 42 39 37 36 34 32 30 30 33 40 51 59 62 69 75 75 74 71 66 61 57 53 51 49 48 47 47 46 45 45 46 48 48 50 49 48 47 46 45 43 42 40 39 38 37 36
57 53 52 52 48 48 54 56 52 49 49 51 51 49 49 50 53 61 70 77 85 91 93 91 86 85 90 95 95 90 84 77 72 69 65 59 56 53 46 42 40 37 35 34 33 32 32 36 41 48 60 69 69 70 72 70 69 67 63 60 58 56 54 53 51 51 50 49 48 47 45 46 46 47 49 50 51 50 50 49 48 46 44 43 41 39
66 61 56 56 56 54 56 57 52 50 53 54 52 50 51 51 50 51 51 51 53 54 54 55 57 56 58 60 59 57 55 52 51 55 55 51 51 51 44 41 40 38 38 39 40 42 45 49 54 57 61 65 64 62 63 61 60 60 60 59 60 59 58 56 54 52 50 48 48 47 46 45 45 44 45 46 47 47 48 48 49 50 49 48 47 46
68 65 61 61 63 62 61 60 57 55 57 58 56 52 53 57 57 54 54 54 52 50 48 47 47 46 45 44 42 42 43 42 44 49 49 46 46 46 43 43 44 45 47 50 52 54 55 56 57 56 57 61 62 60 61 61 62 65 65 65 65 64 63 62 61 58 55 53 50 48 46 45 44 43 42 42 42 43 43 44 44 46 47 48 48 48
63 65 64 63 62 62 60 60 60 61 62 64 65 61 59 61 59 56 57 57 55 55 55 54 53 54 55 54 51 49 50 50 50 51 51 50 49 50 51 52 54 56 57 58 59 59 57 55 55 57 61 65 63 59 58 61 63 66 67 67 67 67 66 65 64 61 60 58 57 54 52 49 47 45 43 43 43 43 43 43 44 44 44 45 46 46
63 65 66 64 62 61 60 58 60 62 62 60 61 62 64 67 66 64 65 63 61 61 61 58 56 57 60 60 58 57 58 58 60 62 62 60 60 61 62 63 63 62 60 59 60 60 56 55 58 63 64 61 59 57 57 59 61 62 64 66 68 69 69 67 65 63 61 60 59 58 56 54 52 50 49 48 48 47 46 45 45 45 44 43 44 45
69 70 71 70 69 67 63 60 61 62 60 58 58 60 64 71 72 70 70 68 67 70 71 69 67 65 65 66 65 63 61 59 61 65 65 63 62 64 65 63 62 60 59 59 60 59 58 60 63 65 63 60 60 61 59 59 61 62 63 65 67 68 69 67 66 64 62 60 59 57 56 55 55 54 54 53 52 51 49 47 45 45 44 42 42 43
71 77 78 76 75 75 72 68 64 62 59 58 59 60 63 71 73 68 66 64 65 69 73 75 76 76 76 77 76 73 69 65 64 66 66 63 62 64 66 66 64 63 63 63 61 59 60 64 65 66 67 66 64 62 59 58 59 60 60 61 62 63 63 62 62 61 60 59 58 57 56 55 55 55 55 55 54 52 51 49 47 46 45 43 43 44
61 68 73 77 79 80 78 72 67 65 60 56 58 60 62 70 73 67 64 65 64 64 66 67 71 72 72 72 72 71 69 67 66 66 67 67 67 68 70 71 69 68 67 65 63 61 61 63 63 64 64 63 60 58 55 54 53 53 54 54 55 56 56 56 56 55 55 55 55 55 55 55 55 56 55 54 54 53 52 50 49 48 47 44 46 48
55 54 57 65 70 68 69 71 71 68 62 57 59 59 56 61 67 67 70 73 70 64 62 62 62 62 61 62 63 63 63 64 66 69 70 72 72 71 69 69 67 66 64 62 61 60 59 58 57 56 56 55 53 51 49 48 48 48 48 48 49 51 51 50 50 50 50 50 50 50 51 51 52 52 53 53 53 52 51 49 47 47 48 47 48 48
53 51 52 56 58 57 60 64 64 63 61 58 58 56 50 51 57 60 65 68 66 64 63 60 57 56 55 57 60 61 63 64 67 69 70 68 66 64 63 62 61 59 58 57 56 56 53 50 48 48 48 47 45 44 42 42 42 42 42 43 44 44 46 46 46 45 45 44 44 44 44 45 46 46 47 48 49 48 47 46 45 46 48 48 47 45
45 46 48 49 50 50 53 56 56 56 55 52 50 50 50 51 53 54 56 57 55 54 53 52 53 54 52 52 54 55 57 59 59 60 59 58 56 54 53 52 51 49 48 47 47 46 43 41 41 41 41 41 40 39 38 37 37 39 40 40 40 41 43 44 44 43 43 42 41 41 40 41 40 41 42 42 42 42 42 41 42 45 45 43 42 40
41 40 42 43 44 43 44 47 47 46 45 42 42 43 45 46 45 44 45 46 46 45 44 44 46 46 45 44 44 44 46 47 48 48 48 48 46 45 43 42 40 40 40 39 39 39 38 38 38 39 39 40 39 37 36 36 38 40 39 37 38 41 43 43 42 41 40 40 40 40 40 40 39 38 38 37 37 38 37 37 40 41 40 38 37 37
37 37 39 40 40 40 41 42 42 40 38 38 38 38 38 37 38 37 37 38 38 39 40 39 38 37 36 36 37 37 38 38 39 41 41 41 41 40 39 38 36 35 35 34 34 35 34 35 36 37 37 37 36 36 37 37 38 39 38 38 40 41 41 41 40 39 38 38 39 40 40 39 39 38 36 35 36 37 36 37 40 40 39 39 39 39
31 35 37 36 36 37 40 40 38 36 37 37 37 36 34 33 33 34 34 34 35 36 36 36 36 35 34 34 33 34 36 36 37 37 37 37 37 37 38 37 36 34 32 30 30 30 30 30 31 33 34 34 33 34 36 37 37 38 39 40 39 39 39 39 39 38 38 38 38 39 39 39 38 38 37 37 39 39 38 40 42 42 42 42 41 39
27 31 33 33 33 35 37 36 33 33 35 35 33 33 32 31 31 30 30 30 31 33 34 34 35 34 33 33 32 32 32 32 32 31 32 33 34 35 36 35 35 34 32 30 28 26 26 27 28 30 32 32 32 32 34 35 35 36 38 38 37 37 37 36 36 36 37 37 37 38 39 39 38 38 39 41 43 42 41 41 41 40 39 38 36 35
27 30 30 31 32 33 33 32 30 31 33 32 30 29 30 30 30 29 28 27 27 28 30 31 33 33 33 32 31 29 28 29 29 29 29 30 31 32 33 32 32 32 30 29 27 26 25 26 27 28 29 30 30 31 33 34 34 34 34 34 34 33 33 33 35 35 36 37 38 39 40 40 39 39 39 41 42 41 38 37 36 35 34 34 34 34
29 28 28 29 30 32 32 30 27 28 30 31 29 27 26 26 26 26 26 25 25 24 26 27 28 29 29 28 27 27 27 27 28 28 27 27 28 28 28 28 28 27 27 27 26 26 25 25 25 25 26 26 27 28 30 32 31 31 33 34 33 32 33 35 36 36 37 38 39 38 38 38 37 36 35 36 36 36 35 34 33 33 34 35 36 36
Wind_Speed
47 46 46 46 44 44 45 44 43 44 45 44 45 44 43 44 47 49 43 36 39 43 42 41 40 41 41 40 37 32 30 31 32 30 28 28 28 31 32 32 34 37 44 51 54 54 53 52 53 51 51 51 50 48 47 46 46 46 45 44 44 44 43 43 43 43 43 44 43 43 44 44 44 44 44 44 45 46 46 47 48 49 50 51 52 53
45 46 46 44 42 45 46 44 44 45 45 44 46 46 45 45 47 51 45 37 40 44 43 42 41 42 43 43 40 35 32 32 34 32 31 32 30 31 33 33 34 37 43 48 51 50 47 47 49 49 48 47 45 44 43 44 44 44 43 42 43 41 40 39 39 39 39 40 40 40 40 40 40 40 40 41 41 42 42 42 43 44 45 46 47 48
45 46 45 42 43 46 46 44 45 46 45 45 45 45 46 46 48 52 48 40 40 44 44 43 43 44 44 45 43 39 37 36 36 35 35 35 33 33 33 32 34 37 41 43 46 46 44 45 48 48 45 42 41 41 42 43 43 42 41 41 41 40 39 37 36 36 36 36 36 36 36 36 36 36 37 37 38 38 38 38 39 40 40 41 42 43
45 45 43 42 45 46 45 45 46 46 46 45 45 45 47 47 47 52 49 42 41 44 46 44 44 45 45 47 46 43 42 41 39 39 39 38 37 37 35 33 33 38 40 40 41 42 41 44 47 47 43 39 39 40 42 43 42 41 41 41 41 40 38 36 34 33 33 33 34 34 34 33 34 34 34 34 34 34 34 35 35 36 37 37 39 40
46 43 42 44 46 46 45 46 46 46 46 45 45 45 47 47 47 51 48 44 45 45 46 45 44 46 46 47 48 46 45 45 42 41 41 41 41 41 40 36 34 38 41 40 40 40 40 42 44 43 40 38 38 39 42 45 43 41 41 40 41 41 38 36 34 32 32 31 32 32 32 32 32 32 32 31 31 32 31 32 32 33 33 34 35 37
44 39 42 44 44 44 44 45 45 45 45 45 45 46 46 46 47 49 48 45 46 46 46 46 45 46 47 48 49 48 47 47 45 43 42 43 44 45 45 41 37 39 41 42 42 40 39 40 41 41 38 34 35 39 44 48 47 43 41 41 42 42 40 37 35 33 32 31 31 31 31 30 30 30 30 30 30 30 30 30 30 31 31 32 33 34
42 37 41 43 41 42 42 41 42 42 43 43 43 44 44 44 45 46 47 45 45 47 47 45 45 47 47 48 50 50 48 46 47 46 44 44 46 48 48 45 41 41 42 44 45 41 40 41 40 41 35 27 32 41 47 51 50 45 42 41 42 43 42 40 36 35 34 32 31 31 30 29 29 29 29 29 29 29 29 29 29 30 30 31 33 34
40 37 40 41 39 40 39 39 40 40 41 41 41 43 42 42 43 43 45 45 45 46 45 44 45 46 46 48 49 50 48 47 47 47 47 47 47 47 48 47 45 44 43 45 46 43 42 42 42 41 35 27 31 43 50 53 51 47 44 43 42 43 44 42 39 37 36 34 33 31 30 29 28 28 28 28 29 29 29 29 29 30 31 31 32 33
40 39 40 41 40 40 39 40 40 40 42 42 41 42 42 42 42 43 44 44 44 46 45 44 45 45 44 47 48 47 47 47 47 48 48 48 46 46 47 48 48 47 45 45 46 44 43 44 43 41 38 30 30 44 56 57 53 49 47 45 43 43 45 44 41 39 38 37 35 33 31 30 30 28 28 28 28 28 29 29 29 30 30 31 32 32
41 41 41 42 42 41 41 41 42 43 44 42 42 43 43 43 44 44 45 45 45 45 45 46 47 45 44 45 47 47 46 45 47 47 46 47 47 46 45 47 48 48 46 45 45 44 44 46 44 43 41 33 31 46 58 57 54 50 48 47 45 44 46 46 43 42 41 39 38 36 34 32 32 31 30 29 28 28 28 29 29 30 30 31 31 32
43 43 43 43 43 43 43 43 43 45 45 43 44 45 44 45 46 47 47 47 47 46 46 49 48 45 44 45 48 48 44 43 47 47 44 46 48 45 44 47 47 44 44 44 43 43 44 46 45 45 44 39 40 51 57 56 55 51 49 49 47 46 46 47 45 44 44 43 41 39 37 36 35 34 33 32 30 29 29 29 29 30 30 31 31 32
46 46 46 46 46 45 45 45 45 46 46 45 46 46 45 47 49 49 49 49 48 47 49 51 49 47 45 47 50 50 46 45 46 46 44 46 47 44 44 46 43 40 41 41 39 39 43 45 44 46 48 45 48 56 58 57 55 53 52 52 49 47 47 47 46 45 45 45 43 42 41 40 38 37 36 35 33 32 30 30 30 30 30 31 31 32
50 49 50 49 49 48 47 48 48 48 48 48 48 48 48 50 51 51 51 51 50 51 52 51 50 49 48 50 54 51 47 48 48 47 46 47 48 46 45 44 41 40 40 38 36 38 42 43 41 44 48 48 51 56 57 54 52 51 52 51 49 48 47 47 47 47 46 46 45 45 44 43 42 40 39 38 37 36 34 32 31 31 31 31 31 32
54 53 52 52 52 50 50 51 49 49 50 50 50 50 50 52 53 53 52 52 52 54 54 52 51 52 51 53 56 52 49 51 52 50 48 48 50 49 48 45 43 42 42 41 40 41 43 42 41 44 47 48 49 51 51 50 49 48 48 47 46 45 44 46 47 47 47 47 46 46 46 45 45 44 43 41 40 39 38 36 35 34 33 32 32 32
56 55 54 54 53 52 52 53 51 50 51 51 52 52 53 54 55 55 54 55 54 55 55 53 53 54 53 55 57 54 52 55 54 52 50 51 52 51 50 49 46 45 45 46 46 45 46 46 46 46 47 48 48 47 48 48 48 47 45 43 42 41 41 44 45 46 47 47 47 47 46 46 46 45 45 44 43 43 42 40 38 37 36 35 35 34
57 56 56 55 54 53 53 54 52 51 52 53 54 54 55 57 57 57 58 57 56 56 56 55 55 56 55 56 58 57 57 57 56 55 54 54 54 54 53 51 49 48 49 51 51 50 49 49 49 48 48 49 50 48 49 49 49 48 46 43 40 38 39 43 45 45 47 47 47 47 47 47 47 46 46 46 45 45 44 43 41 41 40 39 39 38
57 58 57 55 55 56 54 54 54 53 54 55 56 57 58 58 58 59 60 59 57 56 57 56 56 57 57 58 59 59 59 58 58 59 57 57 57 55 55 54 52 51 53 54 53 52 52 51 52 53 52 52 52 51 52 52 52 50 48 44 39 34 35 43 47 48 48 49 49 48 47 47 46 46 46 46 46 46 46 46 44 44 43 43 42 42
60 60 59 57 58 58 55 55 56 55 55 56 57 58 58 57 58 59 60 59 58 56 57 57 56 57 59 60 60 60 60 60 61 61 60 59 59 57 56 56 55 55 56 56 55 55 55 55 56 56 55 55 55 54 55 55 54 53 50 45 39 30 28 37 48 52 53 52 51 50 49 48 47 46 47 47 47 47 47 46 46 46 46 46 46 46
62 60 61 59 59 60 57 55 56 56 55 56 56 56 55 55 56 57 57 57 56 56 56 56 55 56 58 60 59 59 60 60 61 62 62 60 60 59 59 58 58 58 58 58 57 57 58 58 58 58 58 57 57 57 57 57 57 55 52 47 40 31 27 31 41 53 58 57 56 54 51 49 48 47 47 47 48 48 48 47 48 48 48 48 48 49
62 60 60 59 60 60 57 55 55 55 55 54 54 54 53 52 54 55 55 54 54 54 53 54 55 56 57 59 59 58 58 60 62 63 63 61 60 61 61 59 59 59 59 59 59 58 59 59 59 59 59 59 58 58 59 59 58 57 54 50 43 37 33 31 34 44 57 60 58 56 53 51 50 48 47 47 47 48 48 48 48 49 50 50 51 51
61 59 58 58 59 58 56 55 55 55 54 54 54 54 52 52 53 53 53 54 52 51 52 52 53 55 55 56 58 56 54 56 59 62 62 60 60 61 61 60 59 58 59 59 59 59 59 60 60 60 60 60 60 60 60 60 60 59 57 53 49 45 41 42 43 43 50 56 55 54 56 54 52 51 49 48 48 48 48 48 48 49 50 51 52 52
59 58 57 57 58 57 55 56 57 56 54 54 55 55 53 53 54 53 52 53 52 51 53 53 53 54 53 53 55 55 53 54 57 61 60 58 59 61 61 60 59 57 58 59 58 59 59 60 60 60 61 61 61 61 60 61 61 60 59 57 54 52 49 51 54 52 53 58 59 61 61 57 56 55 53 52 52 51 50 50 50 51 51 51 52 52
58 58 58 58 58 57 55 57 58 56 55 56 56 56 56 55 54 53 53 54 53 52 54 53 54 54 53 53 56 54 54 55 58 61 59 56 60 62 61 60 59 57 57 57 57 58 58 59 60 60 60 60 60 61 61 61 61 61 60 59 58 57 55 55 58 59 61 64 64 65 63 59 59 58 57 58 57 55 55 55 55 54 54 54 53 52
56 59 59 58 59 57 57 58 58 57 57 58 58 58 58 56 55 55 55 55 54 53 54 54 54 54 52 54 56 54 53 54 56 60 59 58 61 63 60 59 58 57 56 56 57 58 58 58 59 59 60 59 59 60 60 60 60 60 60 60 59 59 58 58 60 62 63 63 63 65 65 62 60 59 59 60 59 57 57 58 58 57 56 57 57 54
54 58 58 57 57 57 57 58 59 60 60 60 61 60 58 58 59 58 58 57 55 55 57 56 54 55 55 56 58 58 57 57 58 61 61 59 61 62 60 59 58 57 57 56 57 57 58 58 58 58 58 58 58 58 58 58 58 58 58 58 58 58 58 58 59 60 61 60 61 63 64 62 60 60 59 60 60 59 59 60 59 57 57 59 59 56
53 54 54 54 55 55 56 57 60 63 63 61 62 61 60 60 62 60 59 58 57 57 58 56 55 58 59 58 59 60 61 62 63 65 63 61 61 62 61 61 61 61 60 60 59 57 57 57 57 58 57 57 56 56 56 56 55 56 56 56 56 57 57 57 58 58 59 59 59 59 60 60 59 59 59 59 59 59 59 60 57 53 54 57 57 56
51 51 51 52 53 53 54 56 60 64 63 61 61 62 62 63 62 61 59 58 58 58 57 57 58 60 61 62 62 61 63 64 65 66 65 64 63 62 62 63 63 62 61 59 59 58 57 57 57 57 57 56 55 54 54 54 53 53 54 54 54 54 55 56 56 57 57 57 57 57 58 58 57 58 58 57 57 57 58 58 56 53 51 48 47 49
48 47 48 50 51 51 53 55 58 61 62 62 62 62 62 62 62 61 59 59 60 58 56 58 61 63 64 65 64 63 65 65 65 66 66 66 65 62 62 63 63 63 61 58 58 58 57 57 57 57 56 55 54 53 53 52 53 53 52 53 54 54 54 55 55 56 56 57 57 56 57 57 56 57 57 56 56 56 55 56 56 56 52 44 40 41
45 44 45 48 49 50 52 53 55 58 59 60 60 61 61 61 62 62 60 59 61 60 57 60 63 64 65 66 66 67 67 64 64 66 66 66 66 63 61 62 63 63 62 59 58 58 56 56 57 56 55 55 54 54 54 53 53 54 53 53 54 54 55 55 55 56 56 57 56 56 57 57 56 56 56 56 57 56 56 55 55 56 54 49 46 45
44 44 46 46 46 47 49 50 52 55 57 58 59 59 59 60 61 61 60 60 62 61 59 61 64 64 65 67 67 67 68 66 65 66 66 65 65 63 62 62 62 63 62 59 57 57 55 55 55 55 54 54 54 54 55 55 55 55 55 55 55 55 56 56 57 57 57 57 57 57 58 57 57 57 57 57 57 57 57 57 56 56 56 56 55 54
45 46 47 47 46 45 47 49 51 53 55 55 55 56 57 58 58 59 59 61 63 62 61 63 63 62 64 67 67 67 68 68 65 64 63 64 64 64 63 61 61 61 61 58 57 57 56 55 55 54 54 56 56 56 56 57 57 56 57 57 56 56 56 57 57 58 58 58 59 59 59 59 59 59 59 59 59 59 59 59 58 58 58 60 61 61
48 47 48 48 47 45 47 50 51 52 53 51 50 53 55 56 57 58 59 60 62 61 61 61 60 60 64 67 67 66 67 66 64 63 64 64 64 64 63 61 61 61 61 59 59 58 56 55 55 54 55 57 58 58 58 59 58 58 58 59 58 57 57 58 58 59 59 59 59 60 60 61 61 61 61 61 61 61 61 61 61 61 61 62 64 65
52 51 51 51 47 45 48 51 52 52 49 47 49 53 55 56 57 57 58 58 60 60 60 60 59 60 64 66 65 66 66 64 63 65 67 65 65 65 64 63 63 62 62 61 60 59 57 55 54 54 56 59 59 59 61 62 61 61 61 61 61 60 60 60 60 61 61 61 61 61 62 62 63 63 63 63 63 63 64 64 64 64 64 64 65 66
56 54 53 53 50 48 51 53 53 51 46 47 53 55 55 56 56 56 57 58 59 61 61 61 60 60 62 64 65 67 66 63 63 65 68 69 68 68 67 66 65 64 64 63 62 61 58 55 53 54 58 62 62 61 63 64 64 65 65 65 65 65 64 64 64 64 64 64 64 64 64 64 64 65 65 65 66 66 66 67 67 67 67 67 67 67
59 57 56 55 53 52 54 56 55 51 49 52 56 56 55 55 54 55 57 59 60 62 62 62 61 61 62 65 67 66 65 63 63 66 70 71 71 72 71 68 67 67 66 65 65 63 60 57 57 57 60 64 65 64 65 65 65 66 68 68 67 67 67 67 67 67 67 67 67 67 66 66 66 66 67 67 68 69 69 69 69 70 69 69 69 69
62 61 59 58 57 56 57 59 57 54 54 57 58 56 55 55 55 57 59 60 61 63 62 61 61 62 63 66 66 64 63 63 62 66 72 72 71 73 73 70 70 71 70 69 68 66 63 61 61 61 62 65 67 66 66 66 66 67 68 68 69 69 69 69 70 70 70 70 70 69 69 69 68 68 68 68 69 70 70 71 71 71 72 72 72 72
64 64 62 61 61 61 61 61 60 57 57 60 61 59 57 58 60 60 61 62 63 63 62 62 62 62 64 66 66 63 62 63 63 68 75 74 72 74 74 73 73 74 74 73 71 69 66 64 64 65 65 67 68 68 68 68 68 69 70 71 71 71 71 71 71 72 72 72 72 72 72 71 71 70 70 70 70 70 70 71 71 71 72 72 73 73
65 65 66 65 64 64 64 64 63 62 61 63 64 62 60 62 63 63 63 65 65 65 64 64 64 64 66 68 66 63 63 66 67 71 76 75 73 75 76 75 76 76 76 76 74 72 70 68 67 67 68 70 72 71 70 70 70 71 72 73 73 73 73 73 73 73 73 73 73 73 73 73 73 72 71 71 71 71 71 71 71 71 71 71 72 72
67 67 69 69 67 67 67 66 66 66 67 67 66 64 63 65 66 66 67 68 68 68 68 67 67 66 68 69 69 67 68 70 70 73 77 77 75 76 77 78 79 79 78 77 76 75 74 72 70 71 72 74 75 74 72 72 73 73 74 74 74 75 75 75 75 75 75 75 74 74 74 74 74 73 73 73 73 73 73 72 72 71 71 71 71 71
68 69 71 71 70 70 70 70 69 70 71 69 67 65 66 68 69 70 70 71 71 70 70 70 70 70 70 71 72 72 73 73 73 74 78 79 77 78 79 80 81 81 80 79 78 78 77 75 74 75 77 77 77 76 76 75 75 75 75 75 75 76 76 76 76 76 76 76 75 75 75 75 74 74 74 75 75 75 75 74 74 73 73 72 71 70
69 72 73 73 72 72 73 74 73 73 73 71 68 67 68 69 72 74 73 72 72 72 71 72 73 73 73 74 75 76 77 77 76 76 79 81 80 80 81 82 82 82 82 82 81 80 79 78 77 78 79 80 79 79 78 76 75 75 75 75 75 76 77 77 77 77 76 76 76 76 75 75 75 75 75 76 76 76 76 76 75 75 75 73 71 72
71 73 74 74 75 75 76 77 76 75 75 73 71 70 70 71 74 75 74 74 74 74 74 74 75 76 76 76 77 78 79 80 79 79 80 83 83 83 84 84 84 85 84 84 83 82 81 80 80 79 80 81 80 80 78 77 75 75 75 75 75 75 76 77 77 77 76 76 76 76 76 75 75 75 76 76 77 76 76 77 76 75 76 74 72 74
74 73 73 74 77 77 76 77 79 78 78 76 74 74 73 72 74 75 75 77 78 77 77 77 77 78 77 77 78 79 80 81 81 81 83 85 86 86 86 86 86 86 86 85 84 83 83 82 81 80 80 80 80 79 78 76 75 74 74 73 73 74 75 75 75 75 75 75 75 75 75 75 75 76 76 76 76 76 77 76 75 75 76 75 74 75
74 73 72 74 76 76 75 77 80 80 79 79 79 78 75 73 73 75 77 79 80 80 81 80 79 79 77 77 78 80 81 83 83 84 86 87 87 87 87 87 87 86 85 84 83 83 83 81 79 78 78 78 78 77 75 74 73 72 71 71 71 71 71 72 72 72 72 72 72 72 72 73 73 74 74 74 75 75 76 75 74 74 75 75 74 74
72 71 71 72 74 74 74 76 78 79 80 80 79 77 76 75 75 77 79 80 81 81 80 80 79 79 79 79 79 80 81 83 84 85 86 86 86 86 85 85 85 84 83 82 81 81 81 79 76 76 75 75 75 74 73 71 70 69 69 69 68 67 68 69 69 69 69 69 69 69 69 70 71 70 70 71 71 72 72 71 70 71 72 73 72 72
69 68 68 69 71 72 71 73 76 77 78 77 75 74 74 75 76 76 77 78 78 78 78 78 78 79 78 78 78 78 78 80 81 82 83 83 83 83 83 83 82 80 79 79 78 78 77 75 73 72 72 72 72 71 70 68 67 67 67 66 64 64 65 66 66 66 66 66 66 66 67 67 67 67 67 67 67 67 67 67 66 67 68 69 68 68
65 65 65 65 67 68 68 70 72 73 73 72 72 72 72 72 73 73 73 73 74 74 75 76 76 76 75 74 75 75 75 75 76 77 79 79 79 79 80 80 79 77 76 75 74 74 73 70 69 69 69 69 68 66 66 65 64 64 64 63 62 63 63 63 63 64 63 63 64 65 65 65 65 64 64 64 63 63 63 63 62 63 64 64 64 64
60 60 61 62 62 63 64 67 68 67 67 68 69 69 69 69 69 69 69 69 69 70 71 71 72 72 72 71 70 70 71 72 72 73 74 75 75 75 75 76 75 75 73 72 71 70 68 66 65 64 65 65 63 62 63 63 62 61 62 62 62 61 61 61 62 62 62 62 63 62 62 63 62 61 61 60 60 61 60 59 59 59 60 61 62 61
54 55 58 58 58 59 61 63 63 62 63 65 65 65 65 65 65 64 64 64 64 65 66 67 68 68 68 67 67 67 67 68 69 69 69 69 70 70 71 71 72 72 71 70 69 67 65 63 62 61 62 62 61 60 61 61 60 60 61 62 61 60 59 60 60 60 60 60 59 58 59 60 59 57 57 56 57 58 58 56 57 57 57 57 58 58
49 51 53 53 54 56 58 59 59 57 59 62 62 61 62 62 62 62 61 61 61 61 61 62 63 64 64 65 65 65 65 65 65 65 65 66 66 67 68 69 69 69 69 68 67 65 63 62 61 60 60 60 60 59 59 60 60 60 60 60 59 58 57 57 57 57 56 56 56 55 56 57 56 54 54 54 55 56 55 54 54 54 54 54 54 54
46 48 49 49 50 52 55 56 55 54 55 58 60 60 59 59 59 58 59 59 59 59 58 59 61 61 62 63 63 63 63 63 63 64 64 64 64 65 66 67 67 66 66 65 64 63 62 61 60 59 58 58 58 57 58 59 59 57 57 57 56 55 54 54 54 53 53 53 54 54 54 54 53 52 52 52 52 52 53 52 51 51 51 51 51 51
Wind_Direction
260 260 260 260 261 262 262 263 263 264 265 267 269 269 268 269 271 271 270 269 270 270 271 271 272 274 275 274 273 269 268 271 269 265 261 251 244 247 246 240 233 229 225 224 229 236 243 249 252 256 261 266 270 273 276 277 279 281 282 282 280 278 277 275 275 274 273 272 270 269 267 266 265 264 263 261 260 258 256 255 254 254 254 255 255 255
258 258 259 260 261 261 261 262 263 263 264 266 267 268 269 269 270 271 270 268 269 269 270 271 271 271 272 273 274 273 270 268 268 268 265 258 249 247 248 245 240 235 232 232 234 238 243 247 251 256 264 268 270 273 276 278 280 282 283 282 280 279 277 276 275 274 273 272 271 269 268 266 265 264 262 261 259 258 256 255 254 254 254 253 254 254
257 257 259 261 260 259 261 262 262 262 263 264 265 267 268 268 269 270 270 268 268 269 270 271 271 271 271 273 273 273 271 267 267 266 264 262 257 252 248 247 248 245 240 237 237 237 240 246 252 257 262 266 269 272 275 277 280 282 283 282 280 279 278 277 276 275 274 272 272 270 269 267 265 264 262 260 259 258 256 254 253 253 252 252 252 252
256 257 259 259 258 258 260 261 261 261 262 263 264 264 265 266 267 269 271 271 270 269 269 270 270 270 270 271 271 270 269 266 265 264 264 264 263 260 254 248 250 253 251 245 241 240 243 249 253 255 259 264 268 270 273 276 278 280 281 280 279 279 278 278 277 276 275 273 272 271 270 269 267 265 263 262 260 258 257 255 253 252 251 250 250 249
255 257 258 256 256 258 259 259 260 261 262 262 262 263 263 265 266 268 271 272 270 268 269 269 269 268 268 268 269 268 267 267 266 265 266 266 266 266 263 256 252 255 257 255 251 247 249 252 253 255 259 264 268 269 273 275 276 277 278 277 278 278 277 276 276 275 274 273 272 271 270 268 267 266 265 263 261 258 256 254 253 251 250 249 248 247
256 256 257 256 257 258 258 259 260 261 261 262 262 262 263 265 266 268 270 270 270 269 268 267 267 266 266 267 268 267 266 267 267 266 265 266 266 266 266 262 258 258 260 260 258 256 255 255 256 259 263 267 271 273 275 274 272 273 274 275 276 277 276 275 275 275 273 272 271 270 269 268 266 265 264 262 260 258 255 252 250 249 248 247 246 245
257 254 255 256 256 257 258 259 260 261 262 262 263 263 263 265 266 267 269 268 268 268 267 267 266 265 265 265 266 266 266 266 267 266 264 263 263 264 266 266 263 261 261 262 262 261 259 259 261 263 264 264 268 274 276 272 269 271 272 272 274 275 275 274 273 273 273 272 271 270 270 268 266 264 262 260 258 257 254 252 249 247 245 245 244 244
256 253 254 256 256 257 259 259 260 262 262 262 262 263 264 264 265 266 267 267 267 267 267 267 266 265 265 265 264 265 266 266 265 265 264 262 261 262 265 266 264 262 261 262 263 263 263 263 264 264 263 258 261 270 272 269 267 271 271 271 272 272 273 273 272 272 271 271 270 269 269 268 266 264 261 259 257 256 254 253 251 248 246 245 244 245
256 255 256 258 258 258 259 260 260 260 261 262 262 264 264 264 264 265 265 266 266 267 268 268 266 266 266 266 266 266 266 266 265 264 264 264 264 262 263 264 264 262 260 260 262 264 264 263 262 262 259 253 257 265 266 265 266 269 270 269 270 270 270 270 271 270 269 269 268 268 267 267 267 264 261 259 257 255 254 252 250 249 248 246 246 245
256 257 258 259 260 261 261 262 262 262 262 263 264 264 265 265 265 265 264 265 265 267 268 267 266 267 267 267 267 266 265 266 266 264 265 266 265 263 262 262 261 261 261 260 260 260 260 260 259 259 255 247 248 257 259 261 265 268 269 268 268 267 267 268 268 268 268 267 267 266 265 264 264 264 262 259 256 254 252 251 249 248 247 246 245 244
257 258 259 260 262 263 263 263 263 264 264 265 264 264 265 266 265 264 264 264 265 267 266 265 266 267 267 267 267 266 266 266 265 266 266 265 265 265 264 262 261 262 262 261 260 260 259 258 257 256 254 244 237 245 254 260 265 267 267 268 267 266 266 267 266 266 266 266 266 265 265 264 263 263 262 261 258 255 252 250 249 247 246 244 244 243
257 258 259 259 260 261 261 262 262 263 264 264 264 265 265 264 264 264 264 265 265 265 264 264 266 267 267 266 265 266 268 267 266 267 267 265 266 265 263 263 264 264 262 261 262 261 259 256 255 254 254 248 241 246 255 261 263 264 266 268 268 266 265 266 266 265 264 264 264 264 264 263 262 262 262 262 262 260 256 252 250 249 248 247 245 243
258 258 259 260 260 260 260 260 261 262 264 264 264 265 264 263 263 264 264 265 265 264 263 264 266 267 267 265 265 267 269 268 266 265 265 266 268 267 265 265 267 266 265 264 262 260 258 256 254 253 254 253 251 254 260 262 263 263 265 266 266 266 266 266 266 266 265 265 264 264 263 263 262 261 261 262 262 262 260 257 254 251 250 249 248 247
260 259 260 261 261 261 261 261 262 263 264 265 265 264 264 264 264 264 264 264 263 263 264 266 267 267 266 265 266 269 269 267 266 265 265 266 266 267 268 268 267 266 267 266 261 258 259 257 254 254 256 257 257 260 263 265 265 264 264 265 265 266 266 266 266 266 266 266 265 264 263 263 262 262 261 260 260 260 260 259 257 255 253 251 250 250
261 262 261 262 262 262 262 262 262 262 264 264 263 263 263 263 262 262 262 261 261 262 264 265 265 265 265 265 267 268 266 265 266 266 265 264 265 266 267 267 267 268 267 265 262 260 259 260 259 260 260 260 261 262 264 265 266 265 264 265 266 268 268 267 267 268 267 266 265 264 263 263 263 262 261 260 259 259 259 259 258 256 256 255 254 252
262 263 263 263 263 262 262 263 263 262 262 263 263 262 261 261 261 261 261 260 261 261 262 262 262 263 263 263 264 265 264 265 266 266 265 264 264 265 265 266 267 267 265 264 264 263 262 262 263 262 262 262 263 264 264 264 265 266 266 267 268 272 274 273 271 271 270 269 267 265 264 263 263 262 262 261 260 260 260 260 258 257 256 256 256 255
262 262 263 263 264 262 262 263 264 263 262 262 263 262 261 261 261 261 261 261 260 261 261 261 261 262 262 261 262 263 264 265 265 265 265 265 265 266 267 267 266 265 265 265 266 267 266 266 266 265 265 264 265 265 264 265 265 265 267 267 270 275 278 279 279 276 273 270 268 267 265 263 263 262 262 262 261 261 261 261 260 259 258 257 257 256
262 263 263 263 264 264 263 263 263 263 262 262 262 262 262 262 261 260 261 261 261 260 260 260 260 261 261 260 261 263 264 264 265 265 265 265 266 266 267 267 266 265 265 266 267 267 267 267 267 266 266 266 266 266 266 266 267 267 267 267 269 269 266 272 280 280 274 271 268 266 265 264 263 263 262 262 262 261 261 261 261 260 259 259 258 258
264 265 265 264 264 264 263 263 263 263 262 261 260 261 261 261 260 260 260 261 261 260 260 261 261 260 260 261 261 262 263 264 264 265 264 264 265 265 264 264 264 264 265 265 266 266 266 266 266 267 267 267 267 268 268 268 268 268 268 267 265 261 249 255 272 276 274 271 268 265 264 263 262 262 262 262 262 261 260 260 260 260 260 259 259 259
264 264 265 265 264 264 264 262 262 261 260 259 259 258 258 258 259 259 260 260 260 261 260 260 260 259 259 261 261 261 263 264 264 264 264 264 264 264 263 264 264 265 265 265 266 266 266 266 267 267 267 268 268 268 268 268 268 268 268 267 264 258 246 240 251 266 272 272 267 264 263 263 262 261 261 261 261 261 260 260 259 259 259 259 259 259
264 264 264 264 264 264 264 262 260 259 259 259 258 258 257 257 257 258 260 260 260 260 260 259 260 260 261 262 263 263 263 264 264 265 265 265 266 265 264 264 264 265 265 265 266 266 266 266 266 266 266 267 267 267 267 268 268 268 268 267 265 259 249 238 236 247 262 266 264 265 266 264 262 262 260 260 259 259 259 259 259 259 259 259 259 258
263 263 263 263 262 262 262 261 260 260 259 259 259 258 257 256 257 258 259 260 260 259 259 258 258 259 260 261 262 262 262 263 264 266 266 267 267 266 266 265 264 264 264 265 266 266 265 265 265 266 266 266 266 266 266 267 267 267 267 266 264 261 255 249 244 243 249 256 261 266 268 265 264 264 263 261 260 259 259 259 260 260 259 259 259 258
262 261 260 260 260 260 260 260 260 260 259 258 258 258 257 257 257 258 258 258 259 259 260 260 259 259 260 261 261 261 261 261 263 265 266 267 266 266 267 267 267 266 265 265 265 264 264 265 265 265 265 266 266 266 266 266 266 266 266 265 264 261 258 255 252 250 250 254 261 265 265 264 265 265 264 263 262 261 261 261 260 260 260 259 258 257
261 259 257 256 257 257 258 258 259 258 257 256 256 256 257 257 257 256 256 257 258 259 259 259 260 261 261 260 261 261 260 260 262 264 264 264 265 267 268 269 268 267 266 265 265 265 265 265 265 265 265 265 265 265 265 265 265 266 265 265 264 262 260 257 256 255 254 256 258 261 262 263 263 263 263 264 263 263 262 262 260 260 260 260 260 259
257 256 256 255 255 254 255 256 256 255 254 254 255 255 255 256 256 255 255 256 256 257 258 258 260 261 260 260 261 262 261 261 261 262 262 263 265 267 268 268 268 268 267 268 268 268 267 265 264 264 264 264 264 264 264 264 265 265 265 265 264 264 262 260 259 258 258 257 257 259 262 263 262 262 262 262 263 263 262 261 262 262 262 262 263 263
257 256 257 256 255 253 252 253 254 254 253 254 255 256 255 254 255 256 256 257 257 257 258 259 259 260 260 260 261 262 262 262 262 263 264 264 265 266 267 267 268 267 267 268 268 268 267 266 265 264 263 263 263 264 264 264 264 265 265 265 265 264 264 263 262 261 260 259 258 259 260 262 262 261 261 260 261 261 261 261 262 262 263 263 264 264
260 259 258 257 256 254 252 252 253 254 254 254 254 255 255 255 256 257 257 258 258 257 259 260 260 260 260 259 259 261 262 263 264 265 266 265 264 264 265 266 266 267 266 266 266 266 266 265 264 264 264 264 264 264 264 264 264 264 265 265 265 265 264 264 263 263 262 261 260 259 259 260 260 260 260 260 259 259 259 260 259 258 260 263 265 265
261 260 260 259 258 256 253 252 253 255 255 254 254 254 256 257 257 257 256 257 258 257 258 259 259 260 260 261 260 260 260 262 264 265 265 265 265 264 264 264 264 265 265 264 264 264 265 265 265 265 265 265 265 264 264 263 263 262 262 263 263 263 263 263 264 263 263 262 262 261 260 260 259 259 259 259 259 258 257 257 257 256 258 258 258 261
261 260 259 258 258 257 256 254 253 255 256 256 256 255 255 257 258 258 257 257 258 257 257 258 259 260 261 262 261 261 260 261 262 263 263 263 263 263 262 261 262 262 263 263 263 263 264 265 266 266 266 266 266 266 265 264 263 262 262 261 261 261 261 262 262 262 262 262 262 262 261 261 260 259 259 259 259 258 256 255 254 255 255 251 248 250
260 260 258 258 257 258 258 257 255 255 256 256 256 257 257 257 258 259 259 258 258 258 257 257 258 259 261 262 263 264 264 262 260 261 262 263 264 263 261 261 261 261 262 262 263 263 263 264 265 267 268 268 267 266 266 265 264 264 263 262 261 261 261 261 261 261 261 261 261 261 261 261 260 260 259 258 258 258 257 256 255 254 252 250 247 246
261 260 259 258 257 257 257 258 257 256 256 256 258 259 259 259 258 259 259 258 258 257 256 256 258 260 261 262 263 264 264 263 262 263 264 264 264 264 262 261 262 263 264 263 263 263 263 264 265 267 268 269 269 268 268 267 266 266 265 264 263 263 262 262 262 262 261 261 261 261 260 260 260 260 259 259 258 258 257 256 255 254 252 251 250 250
262 261 260 259 258 258 258 257 256 256 256 258 260 260 260 260 259 258 258 258 259 259 258 258 259 260 261 261 262 263 264 266 267 267 265 265 265 266 265 264 264 264 264 263 262 262 263 264 266 268 269 270 270 271 271 270 269 268 268 267 266 265 264 263 263 262 262 262 262 262 262 261 261 260 259 259 259 258 257 257 256 254 253 252 252 252
262 261 261 260 260 259 260 259 258 257 258 260 260 258 258 258 258 259 259 259 260 260 260 259 258 257 258 261 263 264 265 266 268 269 269 269 268 267 267 266 264 264 264 264 263 264 264 264 266 269 270 270 270 271 272 272 271 271 270 269 268 267 266 265 264 263 263 262 261 261 261 261 262 261 261 260 260 259 258 258 257 256 255 254 253 253
263 262 262 262 261 259 260 260 260 260 261 260 258 257 256 257 257 258 259 260 260 260 259 259 258 258 259 261 262 263 265 267 268 269 270 269 269 268 267 266 266 266 265 266 266 266 266 267 267 268 269 270 269 269 270 270 271 272 271 270 270 269 268 268 267 266 265 264 263 262 261 260 261 261 261 261 261 260 260 259 259 258 257 257 256 256
264 264 263 263 262 261 261 261 261 261 260 258 257 257 258 259 260 260 259 258 258 259 259 259 260 260 260 261 261 262 264 265 265 266 266 266 267 267 267 267 267 267 267 268 268 268 269 269 267 266 267 268 268 268 269 269 270 270 271 271 272 271 271 270 269 268 267 266 265 264 263 262 261 260 260 260 260 260 260 260 260 260 259 259 258 258
265 265 264 264 264 262 261 262 262 261 260 260 260 260 260 261 260 259 259 259 259 259 259 260 260 260 260 260 261 262 262 263 263 264 264 264 264 266 267 268 268 269 270 270 270 270 270 270 269 267 266 267 268 268 268 269 269 270 270 271 271 271 271 271 270 270 269 268 267 266 265 264 262 261 260 260 260 260 260 260 260 260 261 261 261 260
265 266 266 265 264 264 262 262 262 261 261 262 262 261 261 261 260 259 260 260 260 260 261 260 260 261 261 260 261 261 263 263 262 262 262 263 264 265 267 268 269 270 271 271 271 271 271 270 269 268 267 268 268 268 268 268 269 269 270 269 269 270 270 270 270 270 270 269 269 268 267 266 265 264 263 262 261 260 260 260 260 260 260 261 261 261
265 266 266 265 265 264 264 264 263 262 261 260 260 261 261 261 261 261 261 261 261 262 261 261 260 260 261 262 262 262 262 261 261 261 262 263 264 265 267 268 269 269 270 271 271 272 271 270 269 270 270 270 269 268 268 269 269 269 269 269 269 269 269 269 269 269 268 268 268 268 268 268 267 267 266 265 263 262 261 261 260 259 259 259 260 260
266 267 267 267 266 266 266 265 265 264 262 260 260 261 261 262 262 262 261 262 262 262 262 262 262 261 262 263 263 262 261 260 260 261 263 264 264 265 267 267 268 268 269 270 271 272 271 271 271 272 271 270 270 270 269 269 268 268 268 268 269 269 269 269 268 268 267 267 267 267 266 267 267 267 267 267 266 265 264 263 261 260 259 259 258 258
267 267 267 267 267 267 267 267 265 264 263 262 262 262 262 262 262 261 261 261 262 262 263 264 264 264 264 264 265 264 263 262 262 263 264 265 266 266 267 268 269 270 270 271 271 272 272 272 272 272 271 271 270 270 269 268 268 268 268 268 268 268 268 268 268 267 267 267 267 266 266 266 265 266 266 266 266 265 265 265 264 263 262 261 260 260
266 266 267 267 267 267 267 266 266 265 265 264 264 263 262 263 263 262 262 262 262 263 263 263 264 264 264 264 265 265 265 265 265 265 266 267 268 268 269 269 270 271 271 271 271 271 272 272 272 271 271 271 270 270 269 268 268 268 268 267 267 267 267 267 267 267 267 267 267 267 266 266 266 265 265 265 265 265 266 266 266 266 265 265 264 263
264 264 265 266 266 266 266 267 268 267 267 266 265 264 263 263 264 264 265 265 264 264 263 263 263 263 263 263 264 265 266 266 267 267 268 268 269 269 269 269 269 270 270 271 271 271 271 271 270 270 270 270 270 270 269 269 268 268 268 267 267 267 267 267 266 266 266 266 266 266 266 266 266 265 265 265 265 265 266 266 266 267 267 266 266 265
264 263 263 264 265 265 266 267 268 268 268 268 268 266 264 263 264 265 266 266 266 265 265 264 263 263 263 264 265 266 266 267 267 267 267 267 267 268 268 268 269 269 270 270 271 271 271 270 269 269 269 269 269 269 269 269 268 268 267 267 266 266 266 266 266 266 265 265 265 265 265 265 265 265 264 265 265 266 266 266 266 266 267 267 267 266
263 263 263 263 264 265 265 266 266 267 267 267 267 266 266 266 266 266 266 265 265 265 265 265 265 265 265 265 265 265 266 266 266 266 266 266 266 267 267 268 268 268 268 269 269 269 269 269 269 269 269 269 269 268 268 267 267 266 266 265 265 264 264 265 265 265 265 265 264 264 264 264 264 263 263 264 264 264 265 265 266 266 267 267 266 266
264 264 263 263 264 264 264 264 265 266 266 265 266 267 268 267 266 265 265 265 265 265 266 266 267 267 266 266 265 264 264 264 265 265 265 265 266 266 266 267 267 267 268 268 268 268 268 268 268 268 268 268 268 267 267 267 266 266 265 264 264 264 264 263 264 264 264 264 264 264 264 263 263 263 263 263 263 263 264 265 265 266 266 266 266 266
264 264 263 264 264 264 264 264 265 265 265 266 267 267 267 266 266 265 265 265 266 266 267 267 266 266 265 265 265 264 264 264 264 265 265 265 266 266 267 267 267 267 267 267 267 267 267 268 268 268 267 267 267 267 267 267 267 266 265 264 264 263 263 262 262 262 262 263 263 263 263 263 263 263 263 263 263 264 264 264 264 264 265 265 265 265
264 264 265 264 264 265 265 265 265 265 266 268 268 267 266 266 266 265 265 265 266 266 266 266 266 266 265 265 265 264 264 264 264 264 264 265 265 266 266 267 267 267 266 266 266 266 266 266 266 266 266 266 266 266 267 266 265 265 264 264 263 261 261 261 261 261 261 261 261 261 262 262 263 263 263 263 263 263 263 263 263 263 263 264 264 264
264 265 266 265 265 266 266 265 265 266 267 268 268 267 267 266 266 266 266 266 266 266 266 266 266 266 266 266 265 265 265 264 263 263 263 264 265 265 266 266 267 267 267 267 266 266 265 265 265 265 265 265 264 264 264 263 263 262 262 261 260 260 260 260 260 260 260 260 260 260 261 261 261 261 262 262 262 262 261 261 261 261 261 262 262 263
267 266 266 266 266 266 265 265 266 267 267 267 267 267 268 268 268 267 267 266 266 265 265 266 266 266 267 266 266 265 264 263 263 263 263 264 264 264 265 265 265 266 266 266 266 266 266 265 264 263 263 263 263 262 261 261 260 259 259 259 259 259 259 259 259 259 259 259 260 260 260 260 260 260 260 260 260 260 260 260 259 259 259 260 261 261
269 267 267 267 267 267 266 266 267 267 267 268 268 267 267 268 268 268 268 267 266 265 265 265 266 266 266 265 265 265 264 264 264 264 264 263 263 263 263 263 263 264 264 265 266 267 267 266 265 263 262 261 261 260 260 260 259 258 258 259 259 258 258 258 259 258 258 259 259 259 258 259 259 259 259 258 258 259 259 259 258 259 259 259 259 260
270 268 268 268 268 268 268 268 268 267 268 268 269 269 268 268 268 268 268 268 268 267 266 265 265 264 264 264 265 265 265 265 264 264 264 264 263 263 263 263 263 263 264 265 265 265 266 265 265 264 263 262 260 259 258 257 258 258 259 259 260 260 260 260 259 259 259 258 258 258 258 258 259 258 257 257 257 257 258 258 257 257 257 257 258 258